Вернуться в каталог

COSMOS 2069

АктивенВоенныеLEO
NORAD 20554·PAYLOAD·🇷🇺 Russia

Запущен Apr 6, 1990 с Plesetsk Cosmodrome

Loading…

Ближайшие Пролёты (ближайшие 24 часа)

TLE

СвежийSource: Space-Track

Эпоха: Sep 14, 2026, 06:26 UTC

1 20554U 90029F   26257.26874870 -.00000007  00000-0  56841-4 0  9996
2 20554  73.9858   3.5410 0021444 144.9980 242.9963 12.54543122668869

Отслеживайте COSMOS 2069 в реальном времени с AllMySat

Download on the App Store